| time (UTC) | temp F | wind direction | speed MPH | gust MPH | rain 1hr in | rain 24hr in | rain mn in | humidity % | barometer mb |
| 20260506001508 | 75 | 287 | 0.0 | 2.0 | 0.00 | 0.00 | 0.00 | 45 | 1011.6 |
| 20260506000008 | 75 | 161 | 0.0 | 3.0 | 0.00 | 0.00 | 0.00 | 43 | 1011.4 |
| 20260505234510 | 76 | 205 | 0.0 | 2.0 | 0.00 | 0.00 | 0.00 | 41 | 1011.4 |
| 20260505233004 | 76 | 137 | 0.0 | 1.0 | 0.00 | 0.00 | 0.00 | 40 | 1011.3 |
| 20260505231600 | 77 | 110 | 0.0 | 2.0 | 0.00 | 0.00 | 0.00 | 38 | 1011.5 |
| 20260505224556 | 78 | 163 | 0.0 | 2.0 | 0.00 | 0.00 | 0.00 | 36 | 1011.5 |
| 20260505223053 | 79 | 342 | 0.0 | 5.0 | 0.00 | 0.00 | 0.00 | 35 | 1011.4 |
| 20260505221551 | 79 | 209 | 0.0 | 10.0 | 0.00 | 0.00 | 0.00 | 35 | 1011.5 |
| 20260505220050 | 80 | 259 | 0.0 | 4.0 | 0.00 | 0.00 | 0.00 | 33 | 1011.3 |
| 20260505214604 | 81 | 237 | 0.0 | 5.0 | 0.00 | 0.00 | 0.00 | 33 | 1011.1 |
| 20260505213058 | 82 | 239 | 0.0 | 11.0 | 0.00 | 0.00 | 0.00 | 31 | 1011.0 |
| 20260505211548 | 82 | 117 | 0.0 | 9.0 | 0.00 | 0.00 | 0.00 | 31 | 1011.0 |
| 20260505210056 | 83 | 123 | 0.0 | 3.0 | 0.00 | 0.00 | 0.00 | 30 | 1011.0 |
| 20260505204556 | 83 | 215 | 0.0 | 6.0 | 0.00 | 0.00 | 0.00 | 29 | 1011.2 |
| 20260505203053 | 85 | 239 | 0.0 | 8.0 | 0.00 | 0.00 | 0.00 | 28 | 1010.9 |
| 20260505201550 | 86 | 192 | 0.0 | 8.0 | 0.00 | 0.00 | 0.00 | 28 | 1011.1 |
| 20260505200059 | 87 | 226 | 0.0 | 4.0 | 0.00 | 0.00 | 0.00 | 26 | 1011.2 |
| 20260505194549 | 87 | 320 | 2.0 | 12.0 | 0.00 | 0.00 | 0.00 | 26 | 1011.4 |
| 20260505193049 | 87 | 284 | 1.0 | 10.0 | 0.00 | 0.00 | 0.00 | 26 | 1011.7 |
| 20260505191543 | 87 | 218 | 1.0 | 12.0 | 0.00 | 0.00 | 0.00 | 27 | 1011.7 |
| 20260505190044 | 87 | 113 | 0.0 | 5.0 | 0.00 | 0.00 | 0.00 | 27 | 1012.0 |
| 20260505184541 | 87 | 279 | 2.0 | 5.0 | 0.00 | 0.00 | 0.00 | 27 | 1012.3 |
| 20260505183039 | 87 | 209 | 0.0 | 8.0 | 0.00 | 0.00 | 0.00 | 28 | 1012.4 |
| 20260505181541 | 86 | 140 | 1.0 | 10.0 | 0.00 | 0.00 | 0.00 | 30 | 1012.6 |
| 20260505180100 | 85 | 182 | 1.0 | 8.0 | 0.00 | 0.00 | 0.00 | 31 | 1012.8 |
| 20260505174556 | 87 | 239 | 2.0 | 7.0 | 0.00 | 0.00 | 0.00 | 29 | 1012.9 |
| 20260505173043 | 86 | 201 | 0.0 | 3.0 | 0.00 | 0.00 | 0.00 | 31 | 1013.0 |
| 20260505171533 | 85 | 198 | 1.0 | 5.0 | 0.00 | 0.00 | 0.00 | 33 | 1013.1 |
| 20260505170034 | 85 | 90 | 0.0 | 5.0 | 0.00 | 0.00 | 0.00 | 33 | 1013.4 |
| 20260505164531 | 84 | 234 | 0.0 | 4.0 | 0.00 | 0.00 | 0.00 | 34 | 1013.5 |
| 20260505163029 | 83 | 45 | 1.0 | 8.0 | 0.00 | 0.00 | 0.00 | 36 | 1013.7 |
| 20260505161528 | 83 | 284 | 0.0 | 3.0 | 0.00 | 0.00 | 0.00 | 38 | 1013.9 |
| 20260505153021 | 80 | 313 | 0.0 | 4.0 | 0.00 | 0.00 | 0.00 | 42 | 1014.6 |
| 20260505151518 | 79 | 140 | 0.0 | 5.0 | 0.00 | 0.00 | 0.00 | 44 | 1014.5 |
| 20260505124509 | 65 | 306 | 0.0 | 1.0 | 0.00 | 0.00 | 0.00 | 63 | 1014.6 |
| 20260505123008 | 63 | 149 | 0.0 | 4.0 | 0.00 | 0.00 | 0.00 | 66 | 1014.9 |
| 20260505121509 | 61 | 214 | 0.0 | 1.0 | 0.00 | 0.00 | 0.00 | 70 | 1014.6 |
| 20260505120006 | 60 | 276 | 0.0 | 0.0 | 0.00 | 0.00 | 0.00 | 73 | 1014.6 |
| 20260505114506 | 59 | 306 | 0.0 | 4.0 | 0.00 | 0.00 | 0.00 | 74 | 1014.4 |
| 20260505113003 | 59 | 199 | 0.0 | 2.0 | 0.00 | 0.00 | 0.00 | 75 | 1014.2 |
| 20260505111504 | 58 | 249 | 0.0 | 0.0 | 0.00 | 0.00 | 0.00 | 76 | 1014.2 |
| 20260505101556 | 58 | 240 | 0.0 | 0.0 | 0.00 | 0.00 | 0.00 | 73 | 1013.6 |
| 20260505100055 | 58 | 269 | 0.0 | 0.0 | 0.00 | 0.00 | 0.00 | 73 | 1013.5 |
| 20260505094553 | 59 | 272 | 0.0 | 1.0 | 0.00 | 0.00 | 0.00 | 72 | 1013.5 |
| 20260505093052 | 59 | 298 | 0.0 | 0.0 | 0.00 | 0.00 | 0.00 | 71 | 1013.5 |
| 20260505091607 | 59 | 169 | 0.0 | 1.0 | 0.00 | 0.00 | 0.00 | 71 | 1013.5 |
| 20260505090051 | 59 | 234 | 0.0 | 3.0 | 0.00 | 0.00 | 0.00 | 71 | 1013.4 |
| 20260505084550 | 59 | 252 | 0.0 | 1.0 | 0.00 | 0.00 | 0.00 | 70 | 1013.4 |
| 20260505083049 | 59 | 215 | 0.0 | 1.0 | 0.00 | 0.00 | 0.00 | 69 | 1013.5 |
| 20260505081557 | 60 | 209 | 0.0 | 0.0 | 0.00 | 0.00 | 0.00 | 67 | 1013.3 |
| 20260505080058 | 60 | 131 | 0.0 | 2.0 | 0.00 | 0.00 | 0.00 | 66 | 1013.4 |
| 20260505074546 | 60 | 140 | 0.0 | 2.0 | 0.00 | 0.00 | 0.00 | 65 | 1013.4 |
| 20260505073047 | 60 | 244 | 0.0 | 3.0 | 0.00 | 0.00 | 0.00 | 64 | 1013.2 |
| 20260505071553 | 60 | 131 | 0.0 | 1.0 | 0.00 | 0.00 | 0.00 | 63 | 1013.0 |
| 20260505070047 | 60 | 209 | 0.0 | 3.0 | 0.00 | 0.00 | 0.00 | 62 | 1012.9 |
| 20260505064541 | 61 | 342 | 0.0 | 7.0 | 0.00 | 0.00 | 0.00 | 61 | 1013.0 |
| 20260505063048 | 61 | 239 | 0.0 | 4.0 | 0.00 | 0.00 | 0.00 | 60 | 1013.0 |
| 20260505061604 | 61 | 192 | 0.0 | 1.0 | 0.00 | 0.00 | 0.00 | 59 | 1012.9 |
| 20260505060036 | 62 | 248 | 0.0 | 2.0 | 0.00 | 0.00 | 0.00 | 59 | 1013.0 |
| 20260505054536 | 62 | 251 | 0.0 | 2.0 | 0.00 | 0.00 | 0.00 | 58 | 1013.0 |
| 20260505053040 | 62 | 195 | 0.0 | 4.0 | 0.00 | 0.00 | 0.00 | 58 | 1012.9 |
| 20260505051554 | 61 | 182 | 0.0 | 1.0 | 0.00 | 0.00 | 0.00 | 59 | 1013.0 |
| 20260505041531 | 61 | 222 | 0.0 | 0.0 | 0.00 | 0.00 | 0.00 | 62 | 1012.5 |
| 20260505040028 | 62 | 222 | 0.0 | 0.0 | 0.00 | 0.00 | 0.00 | 61 | 1012.4 |
| 20260505034529 | 62 | 222 | 0.0 | 0.0 | 0.00 | 0.00 | 0.00 | 62 | 1012.5 |
| 20260505033028 | 62 | 222 | 0.0 | 0.0 | 0.00 | 0.00 | 0.00 | 61 | 1012.4 |
| 20260505031522 | 63 | 222 | 0.0 | 0.0 | 0.00 | 0.00 | 0.00 | 59 | 1012.6 |
| 20260505030022 | 63 | 222 | 0.0 | 0.0 | 0.00 | 0.00 | 0.00 | 58 | 1012.6 |
| 20260505024518 | 64 | 222 | 0.0 | 0.0 | 0.00 | 0.00 | 0.00 | 58 | 1012.7 |
| 20260505023014 | 65 | 222 | 0.0 | 0.0 | 0.00 | 0.00 | 0.00 | 55 | 1012.5 |
| 20260505021512 | 65 | 223 | 0.0 | 0.0 | 0.00 | 0.00 | 0.00 | 53 | 1012.5 |
| 20260505020011 | 66 | 223 | 0.0 | 0.0 | 0.00 | 0.00 | 0.00 | 52 | 1012.5 |
| 20260505014508 | 66 | 145 | 0.0 | 0.0 | 0.00 | 0.00 | 0.00 | 51 | 1012.4 |
| 20260505013107 | 67 | 145 | 0.0 | 0.0 | 0.00 | 0.00 | 0.00 | 49 | 1012.3 |
| 20260505011501 | 68 | 135 | 0.0 | 0.0 | 0.00 | 0.00 | 0.00 | 47 | 1012.1 |
| 20260505010113 | 68 | 135 | 0.0 | 0.0 | 0.00 | 0.00 | 0.00 | 47 | 1011.9 |
| 20260505004559 | 69 | 123 | 0.0 | 1.0 | 0.00 | 0.00 | 0.00 | 45 | 1011.8 |
| 20260505003058 | 70 | 217 | 0.0 | 0.0 | 0.00 | 0.00 | 0.00 | 45 | 1011.6 |